[[{"header":{"parameterUnit":"m.s-1","parameterCategory":2,"la1":30.2991,"la2":30.254,"lo1":-89.0895,"lo2":-89.0444,"dy":0.0017,"dx":0.0017,"nx":28,"ny":28,"refTime":"2025-07-10T03:00:00:Z","depth":"0","parameterNumber":2,"parameterNumberName":"U-component_of_CURRENTS"},"data":[0,0,0,0,0,0,0,0,0,0,0,0,0,0,0,0,0,0,0,0,0,0,0,0,0,0,0,0,0,0,0,0,0,0,0,0,0,0,0,0,0,0,0,0,0,0,0,0,0,0,0,0,0,0,0,0,0,0,-0.327,-0.3271,0,-0.3283,-0.3283,-0.3283,-0.3214,-0.3212,-0.321,-0.3209,-0.311,-0.3109,-0.3108,0,0,0,0,0,0,0,0,0,0,0,0,0,-0.3258,-0.3258,-0.327,-0.3271,-0.3271,-0.3283,-0.3283,-0.3283,-0.3214,-0.3212,-0.321,-0.3208,-0.3111,-0.3109,-0.3108,0,0,0,0,0,0,0,0,0,0,0,0,0,-0.3263,-0.3258,-0.327,-0.324,-0.3238,-0.3283,-0.3283,-0.3283,-0.3215,-0.3212,-0.3209,-0.3207,-0.3111,-0.311,-0.3108,-0.315,0,0,-0.3103,-0.3103,0,0,0,0,0,0,0,0,-0.3263,-0.3263,-0.3244,-0.3243,-0.324,-0.3247,-0.3243,-0.3234,-0.3215,-0.322,-0.3209,-0.3206,-0.315,-0.3145,-0.315,-0.3145,-0.3141,-0.3103,-0.3102,-0.3102,-0.3101,0,0,0,0,0,0,0,-0.3262,-0.3263,-0.3272,-0.3245,-0.3243,-0.3252,-0.3248,-0.3242,-0.3195,-0.322,-0.3215,-0.3223,-0.3147,-0.3152,-0.3147,-0.314,-0.3103,-0.3102,-0.3101,-0.31,-0.3185,-0.3188,0,0,0,0,0,0,-0.3266,-0.3262,-0.3272,-0.3273,-0.3249,-0.3254,-0.325,-0.3245,-0.3197,-0.3189,-0.3225,-0.3219,-0.3156,-0.3149,-0.3143,-0.3177,-0.3102,-0.31,-0.3099,-0.3182,-0.3186,-0.3189,0,0,0,0,0,0,-0.3266,-0.3267,-0.3271,-0.3271,-0.3273,-0.3256,-0.3251,-0.3247,-0.3244,-0.3203,-0.3191,-0.3227,-0.3154,-0.3145,-0.3142,-0.3172,-0.3099,-0.3098,-0.3178,-0.3183,-0.3187,-0.3252,0,0,0,0,0,0,-0.3265,-0.3266,-0.326,-0.3271,-0.3273,-0.3305,-0.3254,-0.3249,-0.3255,-0.3247,-0.3201,-0.319,-0.3151,-0.3145,-0.3141,-0.3169,-0.3097,-0.3174,-0.318,-0.3186,-0.3246,-0.3258,-0.3269,0,0,0,0,0,-0.3264,-0.3268,-0.3259,-0.326,-0.3265,-0.3307,-0.3309,-0.3287,-0.3257,-0.3272,-0.3238,-0.3191,-0.318,-0.3146,-0.314,-0.3169,-0.3171,-0.3178,-0.3185,-0.3241,-0.3256,-0.3269,0,0,0,0,0,0,-0.3248,-0.3262,-0.3252,-0.3254,-0.3283,-0.3296,-0.33,-0.3298,-0.3287,-0.3268,-0.3219,-0.3208,-0.3227,-0.3201,-0.3165,-0.3219,-0.3174,-0.318,-0.3218,-0.3232,-0.3243,-0.325,-0.3096,0,0,0,0,0,-0.3248,-0.325,-0.3278,-0.3277,-0.3293,-0.3301,-0.3311,-0.331,-0.3307,-0.3299,-0.3271,-0.3252,-0.326,-0.3243,-0.3247,-0.3262,-0.3229,-0.3287,-0.3298,-0.3308,-0.3315,-0.3299,-0.3308,-0.3212,-0.3212,-0.3212,0,0,-0.3237,-0.3247,-0.3244,-0.3275,-0.3285,-0.3324,-0.3299,-0.3326,-0.3353,-0.3291,-0.3301,-0.3295,-0.328,-0.3303,-0.3309,-0.3273,-0.332,-0.3317,-0.3324,-0.3327,-0.3307,-0.3315,-0.3323,-0.3217,-0.3216,-0.3216,0,0,-0.3238,-0.3233,-0.3246,-0.3282,-0.3319,-0.3336,-0.335,-0.3378,-0.3379,-0.3406,-0.3379,-0.3393,-0.3383,-0.3387,-0.3385,-0.347,-0.3394,-0.3474,-0.3514,-0.3497,-0.3504,-0.3509,-0.3473,-0.3474,-0.3463,-0.3463,-0.3463,0,-0.3222,-0.3243,-0.326,-0.33,-0.3327,-0.3346,-0.3387,-0.341,-0.3432,-0.3443,-0.3414,-0.3444,-0.3429,-0.3467,-0.3498,-0.3493,-0.3457,-0.345,-0.3507,-0.3512,-0.3516,-0.3478,-0.3478,-0.3467,-0.3467,-0.3466,-0.3466,0,-0.325,-0.3271,-0.3288,-0.3336,-0.3377,-0.3414,-0.3464,-0.3496,-0.3498,-0.3513,-0.3555,-0.3547,-0.3555,-0.3571,-0.3552,-0.3595,-0.3551,-0.353,-0.3458,-0.3528,-0.3485,-0.3484,-0.3473,-0.3471,-0.347,-0.3469,0,0,-0.3188,-0.3285,-0.3286,-0.3318,-0.34,-0.3432,-0.35,-0.356,-0.3583,-0.3612,-0.3637,-0.368,-0.3667,-0.3669,-0.3659,-0.3651,-0.3653,-0.36,-0.3597,-0.354,-0.3592,-0.335,-0.3325,-0.3622,-0.3623,-0.3624,-0.3545,0,-0.3195,-0.3265,-0.3323,-0.3387,-0.3426,-0.3491,-0.3546,-0.3606,-0.3637,-0.3666,-0.3689,-0.3706,-0.3706,-0.3699,-0.3704,-0.367,-0.3655,-0.3675,-0.3554,-0.3551,-0.3306,-0.3318,-0.3101,-0.2993,-0.3544,-0.3544,-0.3544,0,-0.3191,-0.3243,-0.3311,-0.3406,-0.3429,-0.3473,-0.3555,-0.3612,-0.3682,-0.3704,-0.3742,-0.3745,-0.3774,-0.3744,-0.3722,-0.3725,-0.3671,-0.3637,-0.3632,-0.3381,-0.3306,-0.3017,-0.2971,-0.2926,-0.3542,-0.3542,-0.3542,0,-0.3115,-0.3223,-0.327,-0.3307,-0.3427,-0.3463,-0.3518,-0.3606,-0.3645,-0.3715,-0.373,-0.3772,-0.3762,-0.3738,-0.3686,-0.3693,-0.3625,-0.3619,-0.3358,-0.3341,-0.3119,-0.3079,-0.2989,-0.3593,-0.3593,-0.3593,-0.3593,0,-0.3084,-0.3114,-0.3233,-0.3255,-0.3308,-0.3409,-0.3456,-0.3529,-0.361,-0.3647,-0.3724,-0.3743,-0.3754,-0.3723,-0.3684,-0.3497,-0.3618,-0.3354,-0.3297,-0.3134,-0.3098,-0.3017,-0.3086,-0.359,-0.3591,-0.3591,-0.3592,0,-0.298,-0.3063,-0.3115,-0.3235,-0.3269,-0.3295,-0.3402,-0.3435,-0.3533,-0.3582,-0.3601,-0.3694,-0.3634,-0.3612,-0.3551,-0.3438,-0.3232,-0.3236,-0.3027,-0.2943,-0.2586,-0.2668,-0.2555,-0.2495,-0.2904,-0.2897,-0.2892,0,-0.2928,-0.2949,-0.3063,-0.3088,-0.3135,-0.3195,-0.3237,-0.3367,-0.3411,-0.3544,-0.3555,-0.3542,-0.3515,-0.3325,-0.3111,-0.2928,-0.3,-0.2613,-0.2577,-0.2511,-0.2565,-0.2662,-0.2632,-0.2332,-0.2323,-0.2315,-0.2308,0,-0.2819,-0.2859,-0.2899,-0.296,-0.3003,-0.306,-0.3131,-0.3167,-0.332,-0.3371,-0.3435,-0.343,-0.3216,-0.2884,-0.2595,-0.2495,-0.2505,-0.2434,-0.2441,-0.2153,-0.2185,-0.2115,-0.2457,-0.2238,-0.2245,-0.225,-0.2254,-0.2257,-0.2706,-0.2704,-0.2757,-0.2805,-0.2859,-0.2901,-0.2891,-0.2982,-0.3034,-0.3029,-0.3151,-0.292,-0.2558,-0.2093,-0.2079,-0.1731,-0.1962,-0.1622,-0.1742,-0.1858,-0.1742,-0.1891,-0.1552,-0.1555,-0.1558,-0.156,-0.1562,0,-0.2547,-0.2566,-0.2603,-0.2639,-0.2631,-0.2725,-0.2795,-0.2743,-0.2736,-0.2624,-0.2569,-0.1921,-0.1611,-0.1395,-0.1057,-0.1044,-0.1143,-0.1085,-0.1232,-0.1247,-0.1401,-0.131,-0.081,-0.081,-0.081,-0.081,-0.081,-0.081,-0.2454,-0.2424,-0.2459,-0.2399,-0.2423,-0.2361,-0.2369,-0.2306,-0.2166,-0.1774,-0.1318,-0.1027,-0.0744,-0.0718,-0.0705,-0.0743,-0.0868,-0.0828,-0.0991,-0.115,-0.1213,-0.1273,-0.1199,-0.0684,-0.0685,-0.0732,-0.0733,-0.0734]},{"header":{"parameterUnit":"m.s-1","parameterCategory":2,"la1":30.2991,"la2":30.254,"lo1":-89.0895,"lo2":-89.0444,"dy":0.0017,"dx":0.0017,"nx":28,"ny":28,"refTime":"2025-07-10T03:00:00:Z","depth":"0","parameterNumber":3,"parameterNumberName":"V-component_of_CURRENTS"},"data":[0,0,0,0,0,0,0,0,0,0,0,0,0,0,0,0,0,0,0,0,0,0,0,0,0,0,0,0,0,0,0,0,0,0,0,0,0,0,0,0,0,0,0,0,0,0,0,0,0,0,0,0,0,0,0,0,0,0,-0.1298,-0.1297,0,-0.1204,-0.1202,-0.1201,-0.1115,-0.1114,-0.1113,-0.1112,-0.0975,-0.0972,-0.0969,0,0,0,0,0,0,0,0,0,0,0,0,0,-0.1302,-0.1303,-0.1298,-0.1297,-0.1296,-0.1204,-0.1202,-0.1201,-0.1115,-0.1114,-0.1113,-0.1112,-0.0976,-0.0973,-0.0969,0,0,0,0,0,0,0,0,0,0,0,0,0,-0.1263,-0.1303,-0.1298,-0.1243,-0.1237,-0.1204,-0.1202,-0.1201,-0.1116,-0.1114,-0.1113,-0.1112,-0.0977,-0.0973,-0.0969,-0.0971,0,0,-0.0956,-0.0954,0,0,0,0,0,0,0,0,-0.1265,-0.1263,-0.1252,-0.1246,-0.124,-0.1171,-0.1153,-0.1122,-0.1116,-0.1161,-0.1112,-0.1111,-0.1038,-0.1029,-0.1013,-0.0965,-0.0959,-0.0956,-0.0953,-0.0951,-0.095,0,0,0,0,0,0,0,-0.1268,-0.1265,-0.1259,-0.1251,-0.1244,-0.1188,-0.1181,-0.1147,-0.1107,-0.1157,-0.115,-0.1142,-0.1034,-0.1018,-0.1009,-0.0957,-0.0956,-0.0952,-0.0949,-0.0948,-0.0837,-0.0837,0,0,0,0,0,0,-0.1289,-0.1269,-0.1262,-0.1257,-0.125,-0.1189,-0.1182,-0.1193,-0.1108,-0.1094,-0.1143,-0.1138,-0.1025,-0.1014,-0.1004,-0.099,-0.0951,-0.0947,-0.0945,-0.0838,-0.0837,-0.0837,0,0,0,0,0,0,-0.129,-0.129,-0.1266,-0.126,-0.1253,-0.1192,-0.1204,-0.1192,-0.1172,-0.1099,-0.1083,-0.1135,-0.1024,-0.101,-0.0967,-0.0984,-0.0946,-0.0942,-0.0838,-0.0837,-0.0837,-0.0969,0,0,0,0,0,0,-0.1291,-0.1292,-0.1312,-0.1262,-0.1254,-0.1253,-0.1205,-0.1192,-0.1169,-0.1162,-0.1086,-0.1072,-0.1022,-0.0973,-0.0963,-0.0978,-0.0938,-0.0839,-0.0838,-0.0837,-0.0965,-0.0973,-0.098,0,0,0,0,0,-0.1292,-0.1334,-0.1314,-0.1313,-0.1284,-0.1254,-0.1245,-0.1194,-0.1171,-0.1169,-0.1111,-0.1074,-0.096,-0.0971,-0.0958,-0.0972,-0.0839,-0.0838,-0.0837,-0.0962,-0.0972,-0.098,0,0,0,0,0,0,-0.1349,-0.1328,-0.1305,-0.134,-0.1299,-0.124,-0.1241,-0.1204,-0.1159,-0.1151,-0.1078,-0.106,-0.1025,-0.0975,-0.0989,-0.0931,-0.089,-0.0887,-0.0989,-0.0997,-0.1005,-0.1056,-0.0935,0,0,0,0,0,-0.1373,-0.1396,-0.1351,-0.1375,-0.1362,-0.1302,-0.1286,-0.1249,-0.12,-0.1179,-0.1123,-0.1061,-0.1013,-0.0988,-0.0934,-0.0916,-0.089,-0.0909,-0.0917,-0.0924,-0.0953,-0.0946,-0.0957,-0.0833,-0.0833,-0.0833,0,0,-0.1396,-0.1392,-0.1401,-0.1387,-0.1354,-0.1356,-0.1288,-0.1271,-0.127,-0.1173,-0.1156,-0.1087,-0.101,-0.0981,-0.0961,-0.0944,-0.0935,-0.0922,-0.0929,-0.0956,-0.0947,-0.0959,-0.0971,-0.0833,-0.0833,-0.0833,0,0,-0.1455,-0.1455,-0.1486,-0.1468,-0.1433,-0.14,-0.14,-0.1341,-0.1312,-0.1281,-0.1209,-0.1159,-0.1081,-0.1038,-0.1005,-0.1021,-0.0972,-0.0987,-0.1076,-0.1069,-0.108,-0.109,-0.1048,-0.1053,-0.0995,-0.0995,-0.0996,0,-0.1477,-0.1524,-0.1487,-0.1509,-0.1509,-0.1429,-0.1454,-0.1419,-0.1351,-0.1338,-0.1289,-0.1184,-0.1116,-0.1096,-0.1093,-0.1044,-0.102,-0.1058,-0.1085,-0.1094,-0.1102,-0.1056,-0.1061,-0.1002,-0.1001,-0.1,-0.1,0,-0.1554,-0.1587,-0.1605,-0.1615,-0.1608,-0.1616,-0.1566,-0.155,-0.1502,-0.1456,-0.1411,-0.1313,-0.1255,-0.1215,-0.1161,-0.1176,-0.113,-0.1098,-0.108,-0.1124,-0.107,-0.1073,-0.1011,-0.1008,-0.1006,-0.1005,0,0,-0.1596,-0.165,-0.1653,-0.1686,-0.1668,-0.1673,-0.1681,-0.1664,-0.1673,-0.1589,-0.1595,-0.1496,-0.1432,-0.139,-0.1307,-0.1296,-0.1312,-0.1234,-0.123,-0.1222,-0.1278,-0.105,-0.1029,-0.1294,-0.1296,-0.1297,-0.121,0,-0.1656,-0.1748,-0.1749,-0.182,-0.1858,-0.1815,-0.1836,-0.1809,-0.1757,-0.1738,-0.164,-0.1598,-0.1501,-0.1469,-0.1447,-0.1344,-0.1328,-0.1337,-0.121,-0.1206,-0.1024,-0.1028,-0.0854,-0.0745,-0.1212,-0.1212,-0.1212,0,-0.172,-0.1779,-0.1875,-0.1943,-0.1954,-0.1984,-0.2008,-0.2007,-0.1959,-0.1917,-0.186,-0.1768,-0.1715,-0.163,-0.1515,-0.1527,-0.1427,-0.1345,-0.134,-0.1091,-0.0982,-0.0776,-0.0731,-0.0506,-0.1215,-0.1215,-0.1215,0,-0.1778,-0.1864,-0.1956,-0.1976,-0.2035,-0.2071,-0.2087,-0.2063,-0.2066,-0.2024,-0.2014,-0.1926,-0.1868,-0.1766,-0.1551,-0.1557,-0.1412,-0.1395,-0.1096,-0.1078,-0.0884,-0.0845,-0.0635,-0.1344,-0.1344,-0.1344,-0.1345,0,-0.1848,-0.1914,-0.1997,-0.2047,-0.215,-0.2151,-0.222,-0.2216,-0.22,-0.2209,-0.2107,-0.2078,-0.1906,-0.1771,-0.161,-0.1323,-0.145,-0.1113,-0.1045,-0.0914,-0.088,-0.0637,-0.0617,-0.1341,-0.1342,-0.1342,-0.1343,0,-0.1889,-0.1946,-0.2054,-0.2149,-0.2185,-0.2249,-0.2309,-0.2344,-0.2321,-0.233,-0.2322,-0.22,-0.2002,-0.1776,-0.1568,-0.1358,-0.0969,-0.1009,-0.0833,-0.0743,-0.0234,-0.023,-0.0032,0.0111,-0.0689,-0.0682,-0.0677,0,-0.1917,-0.1986,-0.2127,-0.2199,-0.2247,-0.2335,-0.2395,-0.2404,-0.2423,-0.2386,-0.2393,-0.2212,-0.2037,-0.1599,-0.1197,-0.0828,-0.0733,-0.0452,-0.0423,-0.0167,-0.0116,-0.0149,-0.0048,-0.0222,-0.0213,-0.0206,-0.0201,0,-0.1957,-0.2013,-0.2101,-0.2264,-0.2359,-0.2454,-0.2525,-0.256,-0.2551,-0.2527,-0.2436,-0.2294,-0.1807,-0.1259,-0.0719,-0.05,-0.0249,-0.0293,-0.0102,0.0215,0.0258,0.0419,-0.0307,-0.0139,-0.0145,-0.015,-0.0153,-0.0156,-0.1959,-0.2039,-0.2166,-0.2317,-0.2432,-0.2538,-0.2573,-0.2595,-0.2597,-0.2402,-0.2331,-0.1844,-0.1208,-0.0396,-0.021,0.0449,0.0239,0.0645,0.0611,0.0543,0.0742,0.0195,0.0496,0.0493,0.0491,0.0489,0.0488,0,-0.1937,-0.2057,-0.2211,-0.2376,-0.249,-0.255,-0.263,-0.2571,-0.2508,-0.2112,-0.1853,-0.0818,-0.0178,0.0388,0.1144,0.1366,0.1324,0.1448,0.1408,0.1454,0.0939,0.1031,0.1553,0.1553,0.1552,0.1552,0.1552,0.1551,-0.1925,-0.2066,-0.2176,-0.2377,-0.2486,-0.2552,-0.2572,-0.2425,-0.2103,-0.1348,-0.0551,0.0046,0.0822,0.1477,0.2023,0.2051,0.2152,0.2115,0.213,0.1761,0.1681,0.1605,0.1704,0.2359,0.2359,0.2708,0.2711,0.2714]}],[{"header":{"parameterUnit":"m.s-1","parameterCategory":2,"la1":30.2991,"la2":30.254,"lo1":-89.0895,"lo2":-89.0444,"dy":0.0017,"dx":0.0017,"nx":28,"ny":28,"refTime":"2025-07-10T03:00:00:Z","depth":"2","parameterNumber":2,"parameterNumberName":"U-component_of_CURRENTS"},"data":[0,0,0,0,0,0,0,0,0,0,0,0,0,0,0,0,0,0,0,0,0,0,0,0,0,0,0,0,0,0,0,0,0,0,0,0,0,0,0,0,0,0,0,0,0,0,0,0,0,0,0,0,0,0,0,0,0,0,-0.2399,-0.2399,0,-0.2593,-0.2597,-0.2601,-0.272,-0.2719,-0.2717,-0.2715,-0.272,-0.2722,-0.2724,0,0,0,0,0,0,0,0,0,0,0,0,0,-0.2266,-0.2269,-0.2399,-0.2399,-0.2399,-0.2592,-0.2597,-0.2602,-0.2721,-0.2719,-0.2716,-0.2714,-0.272,-0.2722,-0.2724,0,0,0,0,0,0,0,0,0,0,0,0,0,-0.2402,-0.227,-0.2399,-0.2462,-0.2468,-0.2591,-0.2598,-0.2604,-0.2721,-0.2719,-0.2716,-0.2713,-0.2719,-0.2722,-0.2724,-0.2794,0,0,-0.2733,-0.2734,0,0,0,0,0,0,0,0,-0.2394,-0.241,-0.2453,-0.2458,-0.2464,-0.2607,-0.2551,-0.2649,-0.2722,-0.2653,-0.2715,-0.2712,-0.265,-0.2658,-0.274,-0.2794,-0.2794,-0.2733,-0.2734,-0.2736,-0.2736,0,0,0,0,0,0,0,-0.2385,-0.2403,-0.2502,-0.2452,-0.2459,-0.2525,-0.2543,-0.2574,-0.268,-0.2658,-0.2661,-0.2642,-0.2655,-0.2738,-0.274,-0.2794,-0.2733,-0.2735,-0.2737,-0.2738,-0.2735,-0.2733,0,0,0,0,0,0,-0.2305,-0.2394,-0.2495,-0.2505,-0.2393,-0.2527,-0.2549,-0.2585,-0.2684,-0.2691,-0.2644,-0.2646,-0.2735,-0.2737,-0.274,-0.2684,-0.2736,-0.2738,-0.274,-0.2737,-0.2734,-0.2733,0,0,0,0,0,0,-0.2303,-0.2315,-0.2487,-0.243,-0.2452,-0.2528,-0.2571,-0.259,-0.2615,-0.2671,-0.2679,-0.2638,-0.2733,-0.2736,-0.2709,-0.2688,-0.2739,-0.2742,-0.2739,-0.2736,-0.2734,-0.266,0,0,0,0,0,0,-0.23,-0.2315,-0.2345,-0.2426,-0.2452,-0.2489,-0.2571,-0.2594,-0.2598,-0.2603,-0.2668,-0.2671,-0.2731,-0.2704,-0.2711,-0.2693,-0.2744,-0.2741,-0.2737,-0.2734,-0.2664,-0.2655,-0.2647,0,0,0,0,0,-0.2295,-0.2297,-0.2348,-0.2358,-0.2483,-0.2483,-0.2505,-0.2568,-0.2598,-0.259,-0.2636,-0.2666,-0.2689,-0.2705,-0.2714,-0.2696,-0.2742,-0.2738,-0.2735,-0.2668,-0.2657,-0.2647,0,0,0,0,0,0,-0.2253,-0.231,-0.2366,-0.2391,-0.2407,-0.2491,-0.2505,-0.2533,-0.2583,-0.2598,-0.265,-0.2655,-0.2619,-0.266,-0.2676,-0.2682,-0.2719,-0.2717,-0.2665,-0.2655,-0.2647,-0.2679,-0.2746,0,0,0,0,0,-0.2257,-0.2268,-0.2327,-0.2333,-0.2355,-0.2432,-0.245,-0.2485,-0.2517,-0.2542,-0.2584,-0.2623,-0.2629,-0.2635,-0.2657,-0.2667,-0.2703,-0.2657,-0.2648,-0.2641,-0.267,-0.2726,-0.2727,-0.272,-0.272,-0.272,0,0,-0.2235,-0.2262,-0.2273,-0.2322,-0.2377,-0.2403,-0.2442,-0.2447,-0.2466,-0.2528,-0.2573,-0.258,-0.2615,-0.2625,-0.2615,-0.2649,-0.2641,-0.2636,-0.263,-0.2664,-0.2722,-0.2724,-0.2725,-0.2718,-0.2718,-0.2719,0,0,-0.2168,-0.2236,-0.2237,-0.2259,-0.2291,-0.2346,-0.2317,-0.2392,-0.243,-0.2449,-0.2492,-0.2479,-0.2522,-0.2555,-0.2569,-0.252,-0.2577,-0.2515,-0.2525,-0.2576,-0.2579,-0.2582,-0.255,-0.255,-0.2533,-0.2533,-0.2533,0,-0.2152,-0.2186,-0.2222,-0.2233,-0.2261,-0.2301,-0.2323,-0.2363,-0.2408,-0.2448,-0.2432,-0.2507,-0.2498,-0.2527,-0.2507,-0.2503,-0.2529,-0.2562,-0.2569,-0.2573,-0.2577,-0.2545,-0.2547,-0.2529,-0.2529,-0.253,-0.253,0,-0.2103,-0.2145,-0.2133,-0.2193,-0.2214,-0.2222,-0.2277,-0.2306,-0.2345,-0.2401,-0.2421,-0.2436,-0.2497,-0.2459,-0.2468,-0.2492,-0.2492,-0.2534,-0.2603,-0.2574,-0.2539,-0.2543,-0.2523,-0.2524,-0.2526,-0.2527,0,0,-0.2048,-0.2104,-0.2104,-0.2157,-0.2213,-0.2227,-0.2259,-0.2326,-0.237,-0.2396,-0.2455,-0.2435,-0.2477,-0.2494,-0.2498,-0.2519,-0.2504,-0.2544,-0.2549,-0.2523,-0.2576,-0.2393,-0.2379,-0.2573,-0.2575,-0.2576,-0.2511,0,-0.2026,-0.2047,-0.2083,-0.2124,-0.2172,-0.2238,-0.2273,-0.2328,-0.2376,-0.2435,-0.2456,-0.2492,-0.2482,-0.2501,-0.2526,-0.2527,-0.2525,-0.2515,-0.26,-0.26,-0.2454,-0.2382,-0.2202,-0.2117,-0.2515,-0.2516,-0.2516,0,-0.1995,-0.2025,-0.2066,-0.2164,-0.2195,-0.2214,-0.2324,-0.2361,-0.244,-0.2486,-0.2547,-0.257,-0.2596,-0.258,-0.2613,-0.2622,-0.2598,-0.2576,-0.2575,-0.2452,-0.2427,-0.2225,-0.2109,-0.2523,-0.2522,-0.2522,-0.2521,0,-0.1961,-0.2024,-0.2065,-0.2094,-0.2192,-0.2232,-0.2291,-0.2378,-0.2416,-0.2522,-0.2534,-0.2631,-0.2623,-0.2678,-0.2614,-0.2649,-0.261,-0.2665,-0.2462,-0.2447,-0.2333,-0.2304,-0.2676,-0.2676,-0.2676,-0.2677,-0.2677,0,-0.1942,-0.1975,-0.2052,-0.2076,-0.2133,-0.2227,-0.229,-0.2361,-0.2442,-0.2459,-0.2562,-0.2552,-0.265,-0.2626,-0.2633,-0.2523,-0.2639,-0.2443,-0.2427,-0.2286,-0.2255,-0.2669,-0.2669,-0.2674,-0.2675,-0.2675,-0.2675,0,-0.1889,-0.194,-0.1985,-0.2083,-0.2111,-0.2151,-0.2243,-0.2274,-0.2377,-0.2389,-0.2412,-0.2483,-0.2458,-0.2476,-0.2497,-0.2471,-0.2436,-0.2356,-0.2125,-0.2082,-0.2237,-0.2234,-0.218,-0.2173,-0.2167,-0.2162,-0.2158,0,-0.1861,-0.1878,-0.195,-0.1955,-0.1991,-0.2061,-0.2087,-0.2217,-0.2235,-0.231,-0.2284,-0.2273,-0.222,-0.2164,-0.2124,-0.2076,-0.2206,-0.1877,-0.1908,-0.22,-0.2192,-0.2198,-0.2202,-0.1702,-0.1695,-0.1689,-0.1684,0,-0.1798,-0.1815,-0.1847,-0.1853,-0.1869,-0.1895,-0.1946,-0.195,-0.2071,-0.207,-0.2056,-0.2028,-0.1935,-0.1803,-0.1705,-0.1676,-0.1893,-0.1746,-0.2146,-0.184,-0.1741,-0.1736,-0.1758,-0.163,-0.1635,-0.1639,-0.1642,-0.1644,-0.1729,-0.1716,-0.1735,-0.1733,-0.1743,-0.1715,-0.1682,-0.1725,-0.1722,-0.1692,-0.1792,-0.1689,-0.1676,-0.1428,-0.1353,-0.1298,-0.1452,-0.1444,-0.1468,-0.1498,-0.1438,-0.1333,-0.113,-0.1132,-0.1134,-0.1136,-0.1138,0,-0.1632,-0.1621,-0.1609,-0.1587,-0.1532,-0.1584,-0.1562,-0.1486,-0.1411,-0.1432,-0.1413,-0.123,-0.1119,-0.1108,-0.0924,-0.0899,-0.0957,-0.088,-0.0978,-0.1028,-0.1074,-0.1001,-0.0573,-0.0571,-0.057,-0.0569,0,0,-0.1577,-0.1523,-0.1509,-0.1382,-0.1359,-0.1232,-0.1182,-0.1079,-0.1053,-0.094,-0.0901,-0.1038,-0.105,-0.0819,-0.0764,-0.0638,-0.0838,-0.0596,-0.1041,-0.1204,-0.1249,-0.1374,-0.1312,0,0,0,0,0]},{"header":{"parameterUnit":"m.s-1","parameterCategory":2,"la1":30.2991,"la2":30.254,"lo1":-89.0895,"lo2":-89.0444,"dy":0.0017,"dx":0.0017,"nx":28,"ny":28,"refTime":"2025-07-10T03:00:00:Z","depth":"2","parameterNumber":3,"parameterNumberName":"V-component_of_CURRENTS"},"data":[0,0,0,0,0,0,0,0,0,0,0,0,0,0,0,0,0,0,0,0,0,0,0,0,0,0,0,0,0,0,0,0,0,0,0,0,0,0,0,0,0,0,0,0,0,0,0,0,0,0,0,0,0,0,0,0,0,0,-0.0185,-0.0184,0,-0.0055,-0.0053,-0.0051,0.0041,0.0041,0.0041,0.0041,0.0253,0.0259,0.0264,0,0,0,0,0,0,0,0,0,0,0,0,0,-0.028,-0.0278,-0.0185,-0.0184,-0.0183,-0.0055,-0.0053,-0.005,0.0041,0.0041,0.0041,0.0041,0.0251,0.0258,0.0265,0,0,0,0,0,0,0,0,0,0,0,0,0,-0.0196,-0.0278,-0.0185,-0.0128,-0.0122,-0.0056,-0.0053,-0.005,0.0041,0.0041,0.0041,0.0041,0.0249,0.0257,0.0266,0.0318,0,0,0.0292,0.0295,0,0,0,0,0,0,0,0,-0.0201,-0.0191,-0.0137,-0.0132,-0.0125,-0.003,-0.0009,0.0075,0.0041,-0.0012,0.0041,0.0041,0.0161,0.0176,0.0211,0.0328,0.0337,0.0292,0.0297,0.0301,0.0303,0,0,0,0,0,0,0,-0.0207,-0.0196,-0.0125,-0.0137,-0.0129,-0.0084,-0.0072,0.0008,0.008,-0.0008,-0.0003,-0.0001,0.0166,0.0203,0.0217,0.034,0.0292,0.03,0.0305,0.0308,0.0494,0.0494,0,0,0,0,0,0,-0.0242,-0.0202,-0.013,-0.0122,-0.0173,-0.0083,-0.0069,-0.0054,0.0078,0.0095,-0.0001,0.0003,0.0188,0.0207,0.0225,0.0261,0.0301,0.0309,0.0314,0.0495,0.0494,0.0494,0,0,0,0,0,0,-0.0245,-0.0237,-0.0135,-0.0166,-0.0151,-0.0083,-0.0066,-0.0052,-0.0032,0.008,0.0101,0.0001,0.0189,0.0213,0.0288,0.0271,0.0313,0.032,0.0495,0.0494,0.0494,0.0354,0,0,0,0,0,0,-0.0248,-0.0238,-0.0237,-0.0169,-0.0151,-0.0114,-0.0066,-0.005,-0.0034,-0.0027,0.0089,0.011,0.0191,0.0275,0.0297,0.0283,0.0327,0.0495,0.0495,0.0494,0.0359,0.0349,0.0341,0,0,0,0,0,-0.0251,-0.0256,-0.0238,-0.0229,-0.0153,-0.0116,-0.0102,-0.0048,-0.0035,-0.0028,0.0054,0.0106,0.0289,0.0282,0.0308,0.0296,0.0495,0.0495,0.0494,0.0363,0.0351,0.0341,0,0,0,0,0,0,-0.029,-0.0246,-0.0224,-0.0213,-0.0178,-0.0104,-0.0092,-0.0067,0.0003,0.0016,0.0114,0.0141,0.0194,0.0269,0.0259,0.035,0.0397,0.0401,0.0288,0.0278,0.0269,0.0256,0.0334,0,0,0,0,0,-0.0303,-0.03,-0.0247,-0.0241,-0.0224,-0.0164,-0.0144,-0.0109,-0.0045,-0.0015,0.0064,0.0151,0.0217,0.0263,0.0341,0.0399,0.0487,0.0407,0.0397,0.0389,0.0396,0.0506,0.0507,0.0493,0.0493,0.0493,0,0,-0.0318,-0.0296,-0.0292,-0.0252,-0.0211,-0.0192,-0.0149,-0.0124,-0.0109,-0.0001,0.0053,0.0121,0.0223,0.0283,0.0314,0.0343,0.0439,0.0389,0.038,0.0393,0.0505,0.0507,0.0508,0.0493,0.0493,0.0493,0,0,-0.0348,-0.0323,-0.0325,-0.0303,-0.0264,-0.0224,-0.0231,-0.0163,-0.0131,-0.0075,-0.0005,0.0049,0.0169,0.0231,0.0278,0.0268,0.0379,0.0288,0.0244,0.0348,0.035,0.0353,0.0461,0.0474,0.0293,0.0292,0.0292,0,-0.0366,-0.036,-0.0322,-0.0318,-0.031,-0.025,-0.025,-0.0206,-0.0126,-0.0099,-0.0074,0.0076,0.0144,0.021,0.0201,0.0245,0.0334,0.0269,0.0335,0.034,0.0345,0.0455,0.0472,0.0285,0.0286,0.0287,0.0288,0,-0.0389,-0.0389,-0.039,-0.0366,-0.0351,-0.0343,-0.029,-0.0262,-0.0223,-0.0171,-0.0105,-0.0006,0.0086,0.0098,0.0149,0.0209,0.0269,0.0299,0.0355,0.0338,0.0455,0.0475,0.0276,0.0278,0.028,0.0282,0,0,-0.0415,-0.0408,-0.0409,-0.0421,-0.038,-0.0374,-0.0348,-0.0306,-0.0288,-0.0208,-0.0166,-0.0084,-0.0027,0.0029,0.0093,0.0171,0.0263,0.0245,0.0253,0.0339,0.0513,0.0413,0.0427,0.0313,0.0316,0.0318,0.0578,0,-0.0443,-0.0469,-0.0449,-0.0474,-0.0483,-0.0436,-0.0423,-0.0378,-0.0316,-0.0252,-0.016,-0.009,-0.0053,-0.0012,0.0069,0.0237,0.0312,0.0191,0.0531,0.0541,0.0443,0.0444,0.0422,0.0639,0.0598,0.0602,0.0604,0,-0.0466,-0.0489,-0.0522,-0.0545,-0.0542,-0.0543,-0.0516,-0.0494,-0.0391,-0.0339,-0.0248,-0.0151,-0.0021,0.0001,0.0275,0.0207,0.0338,0.0453,0.0467,0.0439,0.0477,0.0654,0.0678,0.0639,0.0636,0.0634,0.0631,0,-0.0519,-0.0542,-0.0582,-0.0587,-0.0588,-0.0596,-0.0589,-0.052,-0.0498,-0.0381,-0.0326,-0.0157,-0.0047,0.0144,0.0355,0.0349,0.0654,0.0686,0.0715,0.0712,0.0791,0.0787,0.0848,0.0848,0.0847,0.0846,0.0846,0,-0.0563,-0.0595,-0.0614,-0.0639,-0.0688,-0.0663,-0.0678,-0.064,-0.0563,-0.0515,-0.0375,-0.028,-0.0004,0.0195,0.0377,0.0604,0.0683,0.0712,0.0767,0.0737,0.0725,0.0803,0.0795,0.0856,0.0854,0.0852,0.085,0,-0.0612,-0.0619,-0.0675,-0.0703,-0.0716,-0.0751,-0.0755,-0.075,-0.0668,-0.059,-0.0548,-0.0317,-0.0049,0.0189,0.0528,0.0627,0.0849,0.0886,0.0817,0.0853,0.0848,0.0829,0.1007,0.1006,0.1004,0.1003,0.1003,0,-0.0637,-0.067,-0.0734,-0.0771,-0.0788,-0.0831,-0.0852,-0.0811,-0.0785,-0.0609,-0.0559,-0.0305,-0.0089,0.0335,0.0554,0.0847,0.0844,0.0928,0.0872,0.0826,0.0863,0.0846,0.083,0.0961,0.0959,0.0959,0.0958,0,-0.069,-0.0711,-0.076,-0.0839,-0.0885,-0.0932,-0.0945,-0.0941,-0.0852,-0.075,-0.0537,-0.0343,0.004,0.0363,0.0636,0.0785,0.0879,0.091,0.0954,0.0856,0.0785,0.0818,0.0805,0.0949,0.095,0.0951,0.0951,0.0952,-0.0725,-0.0775,-0.0835,-0.0908,-0.0963,-0.1002,-0.1023,-0.0994,-0.0935,-0.0743,-0.0512,-0.0198,0.0047,0.0468,0.066,0.0811,0.0843,0.0897,0.0902,0.0907,0.0787,0.0709,0.0842,0.0842,0.0842,0.0843,0.0843,0,-0.0767,-0.082,-0.0894,-0.0976,-0.1034,-0.1047,-0.1058,-0.1041,-0.0957,-0.07,-0.0433,-0.0135,0.0204,0.0439,0.0692,0.0828,0.0848,0.0822,0.0856,0.0863,0.087,0.0749,0.0795,0.0795,0.0795,0.0795,0,0,-0.0792,-0.0868,-0.0907,-0.1011,-0.1061,-0.1108,-0.1108,-0.1051,-0.0878,-0.0646,-0.0399,-0.0043,0.0251,0.0382,0.0572,0.0721,0.075,0.0708,0.0739,0.0769,0.0774,0.091,0.0729,0,0,0,0,0]}],[{"header":{"parameterUnit":"m.s-1","parameterCategory":2,"la1":30.2991,"la2":30.254,"lo1":-89.0895,"lo2":-89.0444,"dy":0.0017,"dx":0.0017,"nx":28,"ny":28,"refTime":"2025-07-10T03:00:00:Z","depth":"4","parameterNumber":2,"parameterNumberName":"U-component_of_CURRENTS"},"data":[0,0,0,0,0,0,0,0,0,0,0,0,0,0,0,0,0,0,0,0,0,0,0,0,0,0,0,0,0,0,0,0,0,0,0,0,0,0,0,0,0,0,0,0,0,0,0,0,0,0,0,0,0,0,0,0,0,0,-0.1456,-0.1457,0,-0.1456,-0.1456,-0.1455,-0.1493,-0.1494,-0.1495,-0.1496,-0.158,-0.1581,-0.1582,0,0,0,0,0,0,0,0,0,0,0,0,0,-0.1409,-0.141,-0.1456,-0.1457,-0.1457,-0.1456,-0.1456,-0.1455,-0.1493,-0.1494,-0.1496,-0.1497,-0.1579,-0.1581,-0.1582,0,0,0,0,0,0,0,0,0,0,0,0,0,-0.142,-0.141,-0.1456,-0.1476,-0.1478,-0.1456,-0.1456,-0.1455,-0.1493,-0.1494,-0.1496,-0.1498,-0.1579,-0.1581,-0.1582,-0.156,0,0,-0.1588,-0.1589,0,0,0,0,0,0,0,0,-0.1419,-0.1422,-0.1473,-0.1475,-0.1477,-0.1477,-0.1469,-0.1495,-0.1492,-0.1486,-0.1496,-0.1498,-0.1553,-0.1557,-0.155,-0.1564,-0.1567,-0.1588,-0.1589,-0.159,-0.159,0,0,0,0,0,0,0,-0.1419,-0.1421,-0.1455,-0.1473,-0.1475,-0.1457,-0.1461,-0.1474,-0.1511,-0.1486,-0.1489,-0.1491,-0.1555,-0.1548,-0.1553,-0.1569,-0.1588,-0.159,-0.1591,-0.1591,-0.1658,-0.1658,0,0,0,0,0,0,-0.1424,-0.1421,-0.1455,-0.1455,-0.1453,-0.1457,-0.1462,-0.1474,-0.1509,-0.1515,-0.1489,-0.1493,-0.1544,-0.155,-0.1556,-0.1641,-0.159,-0.1591,-0.1593,-0.1657,-0.1658,-0.1659,0,0,0,0,0,0,-0.1423,-0.1427,-0.1455,-0.1438,-0.1441,-0.1457,-0.147,-0.1474,-0.1497,-0.151,-0.1519,-0.1514,-0.1546,-0.1553,-0.1593,-0.164,-0.1592,-0.1594,-0.1656,-0.1657,-0.1658,-0.1741,0,0,0,0,0,0,-0.1422,-0.1427,-0.1442,-0.1439,-0.1442,-0.1473,-0.1469,-0.1472,-0.1494,-0.1499,-0.1533,-0.154,-0.1548,-0.1591,-0.1595,-0.1642,-0.1595,-0.1655,-0.1657,-0.1658,-0.1737,-0.1744,-0.1751,0,0,0,0,0,-0.142,-0.1432,-0.1443,-0.1447,-0.1461,-0.1474,-0.1475,-0.1489,-0.1494,-0.1514,-0.1532,-0.1541,-0.1602,-0.1592,-0.1597,-0.1646,-0.1655,-0.1656,-0.1658,-0.1734,-0.1743,-0.1751,0,0,0,0,0,0,-0.142,-0.1437,-0.1449,-0.1467,-0.1485,-0.1482,-0.1495,-0.1501,-0.1525,-0.1538,-0.1548,-0.1557,-0.1612,-0.1605,-0.1594,-0.1665,-0.1631,-0.1633,-0.1687,-0.1695,-0.1702,-0.1699,-0.1597,0,0,0,0,0,-0.1425,-0.1444,-0.1458,-0.1477,-0.1487,-0.1494,-0.1501,-0.1516,-0.1531,-0.1545,-0.1565,-0.1586,-0.1614,-0.1637,-0.1655,-0.169,-0.1662,-0.1722,-0.1729,-0.1735,-0.1733,-0.1719,-0.1724,-0.1664,-0.1664,-0.1664,0,0,-0.1431,-0.1442,-0.1453,-0.1478,-0.1489,-0.1516,-0.1504,-0.1529,-0.1562,-0.155,-0.1602,-0.1614,-0.1627,-0.1674,-0.1698,-0.1682,-0.1738,-0.1737,-0.1742,-0.1737,-0.1721,-0.1727,-0.1732,-0.1665,-0.1665,-0.1664,0,0,-0.1442,-0.1463,-0.1482,-0.1503,-0.153,-0.1541,-0.1556,-0.1574,-0.1599,-0.1639,-0.1644,-0.1678,-0.1714,-0.1735,-0.1749,-0.1797,-0.1775,-0.1809,-0.1848,-0.1835,-0.184,-0.1844,-0.1823,-0.1825,-0.1814,-0.1814,-0.1814,0,-0.1452,-0.1478,-0.149,-0.1516,-0.154,-0.1559,-0.1593,-0.1617,-0.1648,-0.1669,-0.1673,-0.1723,-0.1743,-0.1795,-0.1819,-0.1818,-0.1795,-0.1823,-0.1845,-0.1849,-0.1851,-0.1828,-0.1829,-0.1818,-0.1818,-0.1817,-0.1817,0,-0.147,-0.1507,-0.1521,-0.1567,-0.1595,-0.1627,-0.1665,-0.1702,-0.173,-0.1747,-0.1804,-0.1817,-0.1842,-0.1864,-0.1863,-0.1902,-0.1875,-0.1857,-0.1828,-0.1862,-0.1836,-0.1835,-0.1824,-0.1822,-0.1821,-0.182,0,0,-0.1455,-0.1523,-0.1532,-0.1568,-0.1628,-0.1651,-0.1717,-0.1771,-0.1801,-0.1845,-0.1874,-0.1938,-0.1932,-0.1944,-0.1947,-0.1947,-0.1959,-0.1916,-0.1913,-0.19,-0.1922,-0.1792,-0.1778,-0.1944,-0.1944,-0.1944,-0.1898,0,-0.1473,-0.1531,-0.1563,-0.1635,-0.1671,-0.1721,-0.1771,-0.1825,-0.1862,-0.1892,-0.1923,-0.1952,-0.1967,-0.1975,-0.1984,-0.1958,-0.1959,-0.1973,-0.1884,-0.1881,-0.1766,-0.1773,-0.1945,-0.1897,-0.1897,-0.1896,-0.1896,0,-0.1475,-0.1519,-0.1589,-0.1672,-0.1692,-0.1739,-0.1816,-0.1864,-0.1917,-0.1939,-0.1976,-0.1981,-0.2011,-0.1997,-0.1991,-0.1997,-0.197,-0.1947,-0.1944,-0.179,-0.1749,-0.1851,-0.1894,-0.1894,-0.1894,-0.1894,-0.1894,0,-0.1445,-0.1536,-0.1595,-0.1625,-0.1718,-0.1763,-0.1814,-0.1879,-0.1904,-0.1959,-0.1962,-0.2003,-0.2002,-0.1991,-0.1967,-0.1975,-0.1925,-0.1924,-0.1787,-0.1778,-0.1875,-0.1871,-0.1909,-0.1909,-0.1909,-0.191,-0.191,0,-0.1436,-0.1487,-0.159,-0.162,-0.1679,-0.1755,-0.1804,-0.1859,-0.1904,-0.191,-0.1976,-0.1965,-0.1996,-0.1975,-0.1958,-0.1858,-0.1921,-0.1784,-0.1752,-0.1911,-0.1911,-0.1874,-0.1871,-0.1908,-0.1908,-0.1909,-0.1909,0,-0.1385,-0.1459,-0.1526,-0.1633,-0.1666,-0.1705,-0.1779,-0.1795,-0.1866,-0.1868,-0.1881,-0.1927,-0.1893,-0.1903,-0.1867,-0.1819,-0.1755,-0.1709,-0.1872,-0.1852,-0.1622,-0.1623,-0.1541,-0.1536,-0.1532,-0.1528,-0.1525,0,-0.1359,-0.1393,-0.1507,-0.1533,-0.1584,-0.1648,-0.167,-0.1757,-0.1758,-0.1822,-0.1795,-0.1803,-0.1814,-0.1654,-0.1699,-0.164,-0.1628,-0.1597,-0.1619,-0.1604,-0.1582,-0.159,-0.1598,-0.1518,-0.1517,-0.1516,-0.1515,0,-0.13,-0.1352,-0.1399,-0.1448,-0.1489,-0.152,-0.1563,-0.1547,-0.1625,-0.1704,-0.1642,-0.1618,-0.1571,-0.1546,-0.1507,-0.1478,-0.1618,-0.1552,-0.1561,-0.1582,-0.1575,-0.156,-0.1572,-0.15,-0.1502,-0.1504,-0.1505,0,-0.1245,-0.1253,-0.131,-0.1338,-0.1385,-0.1373,-0.1413,-0.1399,-0.1412,-0.1485,-0.1459,-0.1482,-0.1534,-0.1459,-0.143,-0.1379,-0.1364,-0.1334,-0.1354,-0.1371,-0.1339,-0.1308,-0.1111,0,0,0,0,0,-0.118,-0.1171,-0.1189,-0.1208,-0.1246,-0.1266,-0.1326,-0.1364,-0.1436,-0.1339,-0.1391,-0.1341,-0.129,-0.1316,-0.1225,-0.1368,-0.1382,-0.1261,-0.1362,-0.1417,-0.1435,-0.1415,0,0,0,0,0,0,-0.1135,-0.1153,-0.1148,-0.1088,-0.107,-0.1087,-0.112,-0.1173,-0.1124,-0.1209,-0.1176,-0.1252,-0.1215,-0.1298,-0.119,-0.1197,-0.1233,-0.1287,-0.1283,-0.1408,-0.1423,-0.1437,-0.1423,0,0,0,0,0]},{"header":{"parameterUnit":"m.s-1","parameterCategory":2,"la1":30.2991,"la2":30.254,"lo1":-89.0895,"lo2":-89.0444,"dy":0.0017,"dx":0.0017,"nx":28,"ny":28,"refTime":"2025-07-10T03:00:00:Z","depth":"4","parameterNumber":3,"parameterNumberName":"V-component_of_CURRENTS"},"data":[0,0,0,0,0,0,0,0,0,0,0,0,0,0,0,0,0,0,0,0,0,0,0,0,0,0,0,0,0,0,0,0,0,0,0,0,0,0,0,0,0,0,0,0,0,0,0,0,0,0,0,0,0,0,0,0,0,0,-0.0219,-0.0219,0,-0.0213,-0.0213,-0.0213,-0.0184,-0.0183,-0.0183,-0.0182,-0.0122,-0.0121,-0.012,0,0,0,0,0,0,0,0,0,0,0,0,0,-0.0233,-0.0233,-0.0219,-0.0219,-0.0219,-0.0213,-0.0213,-0.0213,-0.0184,-0.0183,-0.0182,-0.0182,-0.0123,-0.0121,-0.012,0,0,0,0,0,0,0,0,0,0,0,0,0,-0.0226,-0.0233,-0.0219,-0.0205,-0.0204,-0.0213,-0.0213,-0.0213,-0.0184,-0.0183,-0.0182,-0.0182,-0.0123,-0.0121,-0.012,-0.0127,0,0,-0.0115,-0.0114,0,0,0,0,0,0,0,0,-0.0226,-0.0225,-0.0207,-0.0206,-0.0205,-0.0199,-0.0196,-0.0182,-0.0184,-0.019,-0.0182,-0.0181,-0.0145,-0.0141,-0.0141,-0.0124,-0.0121,-0.0115,-0.0114,-0.0113,-0.0113,0,0,0,0,0,0,0,-0.0227,-0.0225,-0.0215,-0.0207,-0.0206,-0.0209,-0.0206,-0.0193,-0.017,-0.019,-0.0188,-0.019,-0.0143,-0.0142,-0.0139,-0.012,-0.0115,-0.0113,-0.0112,-0.0112,-0.0081,-0.0081,0,0,0,0,0,0,-0.023,-0.0226,-0.0216,-0.0215,-0.0215,-0.0209,-0.0206,-0.0201,-0.0171,-0.0167,-0.019,-0.0188,-0.0146,-0.0141,-0.0137,-0.01,-0.0113,-0.0112,-0.0111,-0.0081,-0.0081,-0.0081,0,0,0,0,0,0,-0.023,-0.0229,-0.0216,-0.0222,-0.0221,-0.021,-0.0204,-0.0201,-0.0202,-0.0173,-0.0167,-0.0193,-0.0145,-0.0139,-0.0119,-0.0099,-0.0111,-0.0109,-0.008,-0.0081,-0.0081,-0.0054,0,0,0,0,0,0,-0.023,-0.0228,-0.0233,-0.0222,-0.022,-0.0217,-0.0205,-0.0202,-0.0204,-0.0202,-0.0173,-0.0167,-0.0144,-0.0122,-0.0118,-0.0097,-0.0108,-0.008,-0.0081,-0.0081,-0.0055,-0.0054,-0.0052,0,0,0,0,0,-0.0231,-0.0239,-0.0233,-0.0232,-0.0224,-0.0218,-0.0217,-0.0206,-0.0206,-0.0204,-0.0183,-0.0168,-0.0121,-0.0121,-0.0116,-0.0094,-0.008,-0.008,-0.0081,-0.0056,-0.0054,-0.0052,0,0,0,0,0,0,-0.0246,-0.0237,-0.023,-0.0234,-0.0225,-0.0213,-0.0218,-0.0213,-0.0199,-0.0196,-0.017,-0.0162,-0.0135,-0.013,-0.0131,-0.009,-0.0098,-0.0098,-0.0081,-0.0079,-0.0078,-0.0086,-0.0107,0,0,0,0,0,-0.0253,-0.0258,-0.0242,-0.0248,-0.0243,-0.0233,-0.0234,-0.0223,-0.0209,-0.0203,-0.0183,-0.0162,-0.0134,-0.0119,-0.01,-0.0082,-0.0062,-0.0067,-0.0066,-0.0065,-0.007,-0.0021,-0.0015,-0.0082,-0.0082,-0.0082,0,0,-0.0263,-0.0259,-0.0262,-0.0253,-0.0246,-0.024,-0.0231,-0.0228,-0.0219,-0.0198,-0.0183,-0.0158,-0.0131,-0.01,-0.0088,-0.009,-0.0034,-0.0065,-0.0064,-0.007,-0.0021,-0.0014,-0.0008,-0.0082,-0.0082,-0.0082,0,0,-0.0284,-0.0278,-0.0285,-0.0278,-0.0268,-0.0255,-0.0256,-0.0241,-0.0227,-0.0212,-0.0186,-0.015,-0.0129,-0.0088,-0.0068,-0.0055,-0.003,-0.0056,-0.0049,-0.0,0.0006,0.0012,0.0057,0.0066,-0.0052,-0.0052,-0.0052,0,-0.0297,-0.0301,-0.0287,-0.0288,-0.0289,-0.0263,-0.0267,-0.0245,-0.0225,-0.0213,-0.0205,-0.0149,-0.0117,-0.0066,-0.0053,-0.0047,-0.0025,-0.005,0.0004,0.001,0.0016,0.006,0.007,-0.0051,-0.0051,-0.0051,-0.0052,0,-0.0314,-0.032,-0.0324,-0.0314,-0.031,-0.031,-0.0278,-0.0265,-0.0247,-0.0223,-0.0179,-0.013,-0.0099,-0.0072,-0.0054,0.0001,0.0003,0.0003,0.0006,0.0025,0.0069,0.008,-0.0049,-0.005,-0.005,-0.005,0,0,-0.0337,-0.0338,-0.034,-0.0352,-0.0327,-0.033,-0.0302,-0.0275,-0.0267,-0.0217,-0.0197,-0.012,-0.0096,-0.0074,-0.0036,0.0017,0.0093,0.0024,0.0026,0.0078,0.0197,0.0176,0.0185,0.0103,0.0105,0.0106,0.0217,0,-0.0356,-0.038,-0.0366,-0.0386,-0.0396,-0.0364,-0.035,-0.0318,-0.0281,-0.025,-0.0171,-0.0139,-0.0095,-0.0079,-0.0013,0.0059,0.0119,0.0063,0.0162,0.0164,0.0152,0.0196,0.0111,0.0225,0.0227,0.0229,0.023,0,-0.0374,-0.0393,-0.042,-0.0438,-0.0439,-0.0442,-0.0425,-0.0407,-0.0338,-0.0309,-0.0243,-0.0191,-0.0096,-0.0073,0.0083,0.0041,0.0117,0.0181,0.0186,0.0161,0.0162,0.0198,0.0249,0.0248,0.0246,0.0245,0.0244,0,-0.0411,-0.0432,-0.0464,-0.0468,-0.0473,-0.0481,-0.0478,-0.043,-0.042,-0.0347,-0.0328,-0.0213,-0.0156,-0.0043,0.0101,0.0087,0.0267,0.0263,0.0321,0.0321,0.0295,0.0287,0.037,0.0369,0.0369,0.0369,0.0369,0,-0.0439,-0.0467,-0.0492,-0.0512,-0.0557,-0.0537,-0.056,-0.0533,-0.049,-0.0469,-0.0369,-0.0313,-0.0147,-0.0022,0.0096,0.0247,0.0269,0.0331,0.0351,0.0303,0.0295,0.0303,0.0294,0.0373,0.0372,0.0371,0.0371,0,-0.047,-0.0482,-0.0532,-0.0562,-0.0579,-0.0613,-0.0634,-0.064,-0.0589,-0.0555,-0.0535,-0.0379,-0.0205,-0.0036,0.0166,0.0237,0.038,0.0427,0.0371,0.0384,0.0401,0.0392,0.0494,0.0494,0.0494,0.0495,0.0495,0,-0.0485,-0.0513,-0.0583,-0.0624,-0.0644,-0.069,-0.0717,-0.0696,-0.0688,-0.0583,-0.056,-0.039,-0.0268,0.0016,0.0182,0.0403,0.0426,0.0478,0.0436,0.0406,0.0416,0.0406,0.0397,0.0495,0.0495,0.0495,0.0495,0,-0.0519,-0.0548,-0.0593,-0.0679,-0.0733,-0.0785,-0.0812,-0.0812,-0.0758,-0.0719,-0.056,-0.04,-0.0196,0.0027,0.0202,0.0356,0.0427,0.048,0.048,0.0441,0.0409,0.0416,0.0407,0.0496,0.0496,0.0496,0.0496,0,-0.0546,-0.0591,-0.0655,-0.0727,-0.0801,-0.0845,-0.0859,-0.0821,-0.0802,-0.0672,-0.0612,-0.0379,-0.0234,0.0005,0.0169,0.0316,0.0338,0.0345,0.0353,0.0353,0.0271,0.0206,0.0258,0,0,0,0,0,-0.0568,-0.0621,-0.0695,-0.0777,-0.0848,-0.0883,-0.0902,-0.0893,-0.0837,-0.0734,-0.0668,-0.0468,-0.0191,-0.0054,0.0093,0.0144,0.0337,0.0311,0.0342,0.05,0.0499,0.0423,0,0,0,0,0,0,-0.0588,-0.066,-0.0699,-0.0796,-0.0853,-0.0923,-0.0933,-0.0896,-0.082,-0.0733,-0.0567,-0.0473,-0.0187,-0.0266,0.0089,0.0135,0.016,0.0454,0.0455,0.0501,0.05,0.0499,0.042,0,0,0,0,0]}]]